Location: Beutels
(47.8767°N, 9.8584°E)
Time: 07:35:42
(UTC+00:00)

IKONOS-2 - Pass Details

Date: 19 May 2025
Orbit: 577 x 585 km, 98.2° (Epoch: 22 June)

Event Time Altitude Azimuth Distance (km) Brightness Sun altitude
Rises 20:22:29 0° 14° (NNE) 2,806 8.4 -11.7°
Reaches altitude 10° 20:24:39 10° 16° (NNE) 1,902 7.5 -11.9°
Maximum altitude 20:28:47 79° 103° (ESE) 596 4.3 -12.4°
Drops below altitude 10° 20:32:53 10° 191° (S) 1,891 6.7 -12.8°
Enters shadow 20:33:21 - 191° (SSW) 2,089 6.9 -12.9°
